{"data":{"norad_id":59957,"epoch":"2026-09-21T17:59:15.110016Z","epoch_age_seconds":69679,"freshness":"FRESH","line1":"1 59957U 24107N   26264.74948044  .00011278  00000+0  97874-4 0  9996","line2":"2 59957  53.1592   4.4453 0000889  39.4657 320.6425 15.69694789132957","mean_motion":15.69694789,"eccentricity":8.89e-5,"inclination_deg":53.1592,"raan_deg":4.4453,"arg_perigee_deg":39.4657,"mean_anomaly_deg":320.6425,"bstar":9.7874e-5,"rev_number":13295,"period_min":91.737579183618,"perigee_km":359.17127887373,"apogee_km":360.36927878791,"semimajor_km":6737.9072788308,"source":"CELESTRAK","updated_at":"2026-09-22T09:00:49.117593Z"}}